Time,TemperatureF,DewpointF,PressureIn,WindDirection,WindDirectionDegrees,WindSpeedMPH,WindSpeedGustMPH,Humidity,HourlyPrecipIn,Conditions,Clouds,dailyrainin,SoftwareType,DateUTC
2013-01-20 00:04:00,38.0,30.0,-100.00,SW,215,3.0,13.0,73,-99.99,,,-99.99,,2013-01-20 05:04:00,
2013-01-20 00:12:00,38.0,30.0,-100.00,SSW,200,5.0,12.0,73,-99.99,,,-99.99,,2013-01-20 05:12:00,
2013-01-20 00:23:00,39.0,30.0,-100.00,SW,220,5.0,9.0,72,-99.99,,,-99.99,,2013-01-20 05:23:00,
2013-01-20 00:33:00,39.0,31.0,-100.00,SW,220,6.0,15.0,72,-99.99,,,-99.99,,2013-01-20 05:33:00,
2013-01-20 00:43:00,40.0,31.0,-100.00,SW,220,5.0,15.0,70,-99.99,,,-99.99,,2013-01-20 05:43:00,
2013-01-20 00:53:00,40.0,31.0,-100.00,SW,215,7.0,14.0,70,-99.99,,,-99.99,,2013-01-20 05:53:00,
2013-01-20 01:02:00,40.0,31.0,-100.00,SW,220,5.0,13.0,70,-99.99,,,-99.99,,2013-01-20 06:02:00,
2013-01-20 01:12:00,40.0,31.0,-100.00,SW,225,5.0,13.0,71,-99.99,,,-99.99,,2013-01-20 06:12:00,
2013-01-20 01:22:00,40.0,31.0,-100.00,SW,220,3.0,14.0,71,-99.99,,,-99.99,,2013-01-20 06:22:00,
2013-01-20 01:33:00,40.0,31.0,-100.00,SW,225,6.0,14.0,70,-99.99,,,-99.99,,2013-01-20 06:33:00,
2013-01-20 01:43:00,40.0,31.0,-100.00,SSW,205,6.0,12.0,70,-99.99,,,-99.99,,2013-01-20 06:43:00,
2013-01-20 01:52:00,40.0,31.0,-100.00,SW,225,7.0,14.0,70,-99.99,,,-99.99,,2013-01-20 06:52:00,
2013-01-20 02:02:00,40.0,31.0,-100.00,SW,220,3.0,14.0,70,-99.99,,,-99.99,,2013-01-20 07:02:00,
2013-01-20 02:12:00,40.0,31.0,-100.00,SW,225,6.0,12.0,70,-99.99,,,-99.99,,2013-01-20 07:12:00,
2013-01-20 02:22:00,40.0,31.0,-100.00,SW,220,5.0,15.0,69,-99.99,,,-99.99,,2013-01-20 07:22:00,
2013-01-20 02:32:00,40.0,31.0,-100.00,SW,230,5.0,10.0,69,-99.99,,,-99.99,,2013-01-20 07:32:00,
2013-01-20 02:42:00,40.0,30.0,-100.00,SW,220,6.0,15.0,68,-99.99,,,-99.99,,2013-01-20 07:42:00,
2013-01-20 02:52:00,40.0,30.0,-100.00,SW,230,5.0,15.0,67,-99.99,,,-99.99,,2013-01-20 07:52:00,
2013-01-20 03:02:00,40.0,30.0,-100.00,SW,230,5.0,15.0,67,-99.99,,,-99.99,,2013-01-20 08:02:00,
2013-01-20 03:12:00,40.0,30.0,-100.00,SW,220,7.0,12.0,68,-99.99,,,-99.99,,2013-01-20 08:12:00,
2013-01-20 03:22:00,40.0,30.0,-100.00,SW,220,7.0,17.0,67,-99.99,,,-99.99,,2013-01-20 08:22:00,
2013-01-20 03:32:00,40.0,30.0,-100.00,SSW,200,5.0,14.0,67,-99.99,,,-99.99,,2013-01-20 08:32:00,
2013-01-20 03:42:00,40.0,29.0,-100.00,SW,220,6.0,12.0,66,-99.99,,,-99.99,,2013-01-20 08:42:00,
2013-01-20 03:52:00,40.0,29.0,-100.00,SW,225,5.0,14.0,66,-99.99,,,-99.99,,2013-01-20 08:52:00,
2013-01-20 04:02:00,39.0,30.0,-100.00,SW,230,3.0,13.0,68,-99.99,,,-99.99,,2013-01-20 09:02:00,
2013-01-20 04:12:00,39.0,29.0,-100.00,SW,215,2.0,10.0,67,-99.99,,,-99.99,,2013-01-20 09:12:00,
2013-01-20 04:30:00,39.0,30.0,-100.00,SW,230,3.0,14.0,71,-99.99,,,-99.99,,2013-01-20 09:30:00,
2013-01-20 04:52:00,39.0,30.0,-100.00,SW,225,5.0,10.0,70,-99.99,,,-99.99,,2013-01-20 09:52:00,
2013-01-20 05:02:00,39.0,30.0,-100.00,SW,225,7.0,13.0,70,-99.99,,,-99.99,,2013-01-20 10:02:00,
2013-01-20 05:12:00,39.0,30.0,-100.00,SW,230,3.0,14.0,71,-99.99,,,-99.99,,2013-01-20 10:12:00,
2013-01-20 05:23:00,39.0,30.0,-100.00,SW,230,3.0,14.0,71,-99.99,,,-99.99,,2013-01-20 10:23:00,
2013-01-20 05:42:00,38.0,30.0,-100.00,SW,235,3.0,13.0,71,-99.99,,,-99.99,,2013-01-20 10:42:00,
2013-01-20 05:53:00,38.0,30.0,-100.00,SW,230,6.0,15.0,72,-99.99,,,-99.99,,2013-01-20 10:53:00,
2013-01-20 06:03:00,39.0,30.0,-100.00,SW,225,6.0,15.0,71,-99.99,,,-99.99,,2013-01-20 11:03:00,
2013-01-20 06:33:00,38.0,30.0,-100.00,SW,225,7.0,13.0,71,-99.99,,,-99.99,,2013-01-20 11:33:00,
2013-01-20 09:43:00,42.0,29.0,-100.00,SW,235,8.0,15.0,59,-99.99,,,-99.99,,2013-01-20 14:43:00,
2013-01-20 09:53:00,43.0,29.0,-100.00,SW,225,7.0,17.0,57,-99.99,,,-99.99,,2013-01-20 14:53:00,
2013-01-20 10:04:00,44.0,29.0,-100.00,SW,225,6.0,20.0,56,-99.99,,,-99.99,,2013-01-20 15:04:00,
2013-01-20 10:13:00,44.0,29.0,-100.00,WSW,240,7.0,18.0,55,-99.99,,,-99.99,,2013-01-20 15:13:00,
2013-01-20 10:23:00,45.0,28.0,-100.00,WSW,240,10.0,24.0,52,-99.99,,,-99.99,,2013-01-20 15:23:00,
2013-01-20 10:30:00,47.0,29.0,-100.00,SW,225,7.0,24.0,49,-99.99,,,-99.99,,2013-01-20 15:30:00,
2013-01-20 10:33:00,45.0,28.0,-100.00,SW,230,10.0,20.0,52,-99.99,,,-99.99,,2013-01-20 15:33:00,
2013-01-20 10:43:00,45.0,29.0,-100.00,SW,225,10.0,20.0,52,-99.99,,,-99.99,,2013-01-20 15:43:00,
2013-01-20 10:53:00,45.0,28.0,-100.00,West,265,8.0,30.0,51,-99.99,,,-99.99,,2013-01-20 15:53:00,
2013-01-20 11:12:00,47.0,29.0,-100.00,SW,225,7.0,24.0,49,-99.99,,,-99.99,,2013-01-20 16:12:00,
2013-01-20 11:23:00,47.0,29.0,-100.00,SW,225,7.0,24.0,49,-99.99,,,-99.99,,2013-01-20 16:23:00,
2013-01-20 12:03:00,51.0,28.0,-100.00,West,280,18.0,37.0,41,-99.99,,,-99.99,,2013-01-20 17:03:00,
2013-01-20 12:13:00,51.0,28.0,-100.00,SW,235,12.0,37.0,42,-99.99,,,-99.99,,2013-01-20 17:13:00,
2013-01-20 12:23:00,51.0,28.0,-100.00,SW,235,12.0,37.0,42,-99.99,,,-99.99,,2013-01-20 17:23:00,
2013-01-20 12:33:00,50.0,27.0,-100.00,WSW,250,16.0,30.0,41,-99.99,,,-99.99,,2013-01-20 17:33:00,
2013-01-20 12:43:00,50.0,27.0,-100.00,West,265,15.0,33.0,41,-99.99,,,-99.99,,2013-01-20 17:43:00,
2013-01-20 12:52:00,50.0,28.0,-100.00,West,280,15.0,24.0,41,-99.99,,,-99.99,,2013-01-20 17:52:00,
2013-01-20 13:03:00,50.0,27.0,-100.00,WNW,295,21.0,33.0,41,-99.99,,,-99.99,,2013-01-20 18:03:00,
2013-01-20 13:13:00,50.0,27.0,-100.00,WNW,285,17.0,39.0,41,-99.99,,,-99.99,,2013-01-20 18:13:00,
2013-01-20 13:53:00,49.0,27.0,-100.00,West,265,15.0,30.0,42,-99.99,,,-99.99,,2013-01-20 18:53:00,
2013-01-20 14:03:00,49.0,27.0,-100.00,WNW,285,13.0,30.0,43,-99.99,,,-99.99,,2013-01-20 19:03:00,
2013-01-20 14:12:00,49.0,27.0,-100.00,WNW,285,14.0,32.0,43,-99.99,,,-99.99,,2013-01-20 19:12:00,
2013-01-20 14:23:00,48.0,27.0,-100.00,WNW,300,17.0,24.0,44,-99.99,,,-99.99,,2013-01-20 19:23:00,
2013-01-20 14:33:00,48.0,27.0,-100.00,NW,310,14.0,25.0,45,-99.99,,,-99.99,,2013-01-20 19:33:00,
2013-01-20 14:40:00,45.0,27.0,-100.00,NW,310,20.0,32.0,50,-99.99,,,-99.99,,2013-01-20 19:40:00,
2013-01-20 14:43:00,47.0,28.0,-100.00,NW,315,14.0,27.0,48,-99.99,,,-99.99,,2013-01-20 19:43:00,
2013-01-20 14:52:00,45.0,28.0,-100.00,NW,310,15.0,28.0,51,-99.99,,,-99.99,,2013-01-20 19:52:00,
2013-01-20 15:23:00,45.0,27.0,-100.00,NW,310,20.0,32.0,50,-99.99,,,-99.99,,2013-01-20 20:23:00,
2013-01-20 15:33:00,45.0,27.0,-100.00,NW,310,20.0,32.0,50,-99.99,,,-99.99,,2013-01-20 20:33:00,
2013-01-20 15:54:00,44.0,24.0,-100.00,WNW,300,20.0,25.0,45,-99.99,,,-99.99,,2013-01-20 20:54:00,
2013-01-20 16:13:00,44.0,24.0,-100.00,NW,305,14.0,27.0,44,-99.99,,,-99.99,,2013-01-20 21:13:00,
2013-01-20 16:23:00,44.0,23.0,-100.00,WNW,300,17.0,24.0,43,-99.99,,,-99.99,,2013-01-20 21:23:00,
2013-01-20 16:33:00,44.0,23.0,-100.00,WNW,295,13.0,28.0,43,-99.99,,,-99.99,,2013-01-20 21:33:00,
2013-01-20 16:43:00,44.0,23.0,-100.00,WNW,300,9.0,18.0,42,-99.99,,,-99.99,,2013-01-20 21:43:00,
2013-01-20 16:53:00,44.0,21.0,-100.00,NW,305,14.0,27.0,39,-99.99,,,-99.99,,2013-01-20 21:53:00,
2013-01-20 17:03:00,44.0,21.0,-100.00,NW,305,14.0,27.0,39,-99.99,,,-99.99,,2013-01-20 22:03:00,
2013-01-20 20:13:00,32.0,14.0,-100.00,NW,310,12.0,27.0,47,-99.99,,,-99.99,,2013-01-21 01:13:00,
2013-01-20 20:33:00,31.0,12.0,-100.00,NW,305,17.0,27.0,45,-99.99,,,-99.99,,2013-01-21 01:33:00,
2013-01-20 20:43:00,31.0,11.0,-100.00,WNW,300,14.0,27.0,43,-99.99,,,-99.99,,2013-01-21 01:43:00,
2013-01-20 20:53:00,30.0,10.0,-100.00,NW,320,15.0,28.0,42,-99.99,,,-99.99,,2013-01-21 01:53:00,
2013-01-20 21:03:00,30.0,9.0,-100.00,NW,325,22.0,38.0,40,-99.99,,,-99.99,,2013-01-21 02:03:00,
2013-01-20 21:13:00,30.0,9.0,-100.00,NW,320,22.0,39.0,41,-99.99,,,-99.99,,2013-01-21 02:13:00,
2013-01-20 21:23:00,30.0,9.0,-100.00,NW,320,17.0,35.0,42,-99.99,,,-99.99,,2013-01-21 02:23:00,
2013-01-20 21:33:00,29.0,9.0,-100.00,NW,310,17.0,29.0,43,-99.99,,,-99.99,,2013-01-21 02:33:00,
2013-01-20 21:43:00,29.0,9.0,-100.00,WNW,300,12.0,25.0,43,-99.99,,,-99.99,,2013-01-21 02:43:00,
2013-01-20 21:53:00,29.0,9.0,-100.00,NW,310,14.0,24.0,42,-99.99,,,-99.99,,2013-01-21 02:53:00,
2013-01-20 22:03:00,28.0,8.0,-100.00,NW,305,15.0,24.0,42,-99.99,,,-99.99,,2013-01-21 03:03:00,
2013-01-20 22:13:00,28.0,8.0,-100.00,NW,305,12.0,24.0,42,-99.99,,,-99.99,,2013-01-21 03:13:00,
2013-01-20 22:23:00,28.0,8.0,-100.00,NW,310,14.0,21.0,42,-99.99,,,-99.99,,2013-01-21 03:23:00,
2013-01-20 22:33:00,28.0,8.0,-100.00,NW,325,15.0,25.0,41,-99.99,,,-99.99,,2013-01-21 03:33:00,
2013-01-20 22:43:00,28.0,8.0,-100.00,NW,310,10.0,21.0,42,-99.99,,,-99.99,,2013-01-21 03:43:00,
2013-01-20 22:53:00,28.0,8.0,-100.00,NW,305,12.0,18.0,42,-99.99,,,-99.99,,2013-01-21 03:53:00,
2013-01-20 23:03:00,28.0,8.0,-100.00,NW,305,12.0,18.0,42,-99.99,,,-99.99,,2013-01-21 04:03:00,
2013-01-20 23:13:00,27.0,8.0,-100.00,NW,315,14.0,22.0,43,-99.99,,,-99.99,,2013-01-21 04:13:00,
2013-01-20 23:23:00,27.0,8.0,-100.00,NW,315,14.0,22.0,43,-99.99,,,-99.99,,2013-01-21 04:23:00,
2013-01-20 23:33:00,27.0,8.0,-100.00,NW,305,13.0,23.0,43,-99.99,,,-99.99,,2013-01-21 04:33:00,
2013-01-20 23:43:00,27.0,8.0,-100.00,NW,315,10.0,18.0,43,-99.99,,,-99.99,,2013-01-21 04:43:00,
2013-01-20 23:53:00,27.0,8.0,-100.00,NW,315,12.0,22.0,43,-99.99,,,-99.99,,2013-01-21 04:53:00,